Location: Unspecified
(0.0000°N, 0.0000°E)
Time: 04:10:08
(UTC+00:00)

Tiangong - Visible Passes

Search period start: 08 June 2023 00:00
Search period end: 18 June 2023 00:00
Orbit: 386 x 390 km, 41.5° (Epoch: 07 June)

Date Brightness Start Highest point End Pass type
(mag) Time Alt. Az. Time Alt. Az. Time Alt. Az.
10 Jun 0.8 19:48:21 10° SW 19:48:36 12° SW 19:48:36 12° SW visible
11 Jun -1.7 18:49:49 10° SSW 18:52:49 40° SE 18:55:13 14° ENE visible
12 Jun 0.5 19:28:22 10° W 19:30:52 21° NW 19:33:20 10° N visible
13 Jun 1.6 05:23:56 10° NNE 05:24:40 11° NE 05:25:24 10° ENE visible
13 Jun -1.4 18:28:58 10° WSW 18:32:05 56° NW 18:35:12 10° NE visible
15 Jun 0.1 05:01:02 10° NNW 05:03:49 28° NE 05:06:36 10° ESE visible
16 Jun 1.3 04:03:43 10° NNE 04:04:55 12° NE 04:06:08 10° ENE visible
17 Jun -2.3 04:41:46 40° NW 04:42:46 89° SW 04:45:56 10° SE visible
